Macae, Brazil

8:59 PM -03 on April 24, 2018 (GMT -0300)
Macae

Weather History for SBME - February, 2014

Change the Weather History Date:

Sunday, February 9, 2014

  Actual Average Record
Temperature  
Mean Temperature 88 °F -  
Max Temperature 104 °F 84 °F 104 °F (2014)
Min Temperature 71 °F 71 °F 69 °F (2017)
Cooling Degree Days 22    
Growing Degree Days 38 (Base 50)    
Moisture  
Dew Point 70 °F    
Average Humidity 66    
Maximum Humidity 94    
Minimum Humidity 27    
Precipitation  
Precipitation 0.00 in - - ()
Sea Level Pressure  
Sea Level Pressure 29.94 in    
Wind  
Wind Speed 9 mph ()    
Max Wind Speed 18 mph    
Max Gust Speed -    
Visibility 6.2 miles    
Events      
Averages and records for this station are not official NWS values.
T = Trace of Precipitation, MM = Missing Value Source: Averaged Metar Reports

Daily Weather History Graph

Daily Weather History Graph

Search for Another Location

Airport or City:

Astronomy

Feb. 09, 2014 Rise Set
Actual Time 6:32 AM -02 7:29 PM -02
Civil Twilight 6:09 AM -02 7:52 PM -02
Nautical Twilight 5:41 AM -02 8:20 PM -02
Astronomical Twilight 5:13 AM -02 8:48 PM -02
Moon 3:34 PM -02 (2/9) 2:01 AM -02 (2/9)
Length of Visible Light 13h 43m
Length of Day
12h 56m
Waxing Gibbous, 76% of the Moon is Illuminated
Feb 9
Waxing Gibbous
Feb 14
Full
Feb 22
Last Quarter
Mar 1
New
Mar 8
First Quarter

Hourly Weather History & Observations

Time (-02) Temp. Heat Index Dew Point Humidity Pressure Visibility Wind Dir Wind Speed Gust Speed Precip Events Conditions
12:00 AM 77.0 °F - 73.4 °F 89% 29.95 in - NE 8.1 mph - N/A   Clear
1:00 AM 77.0 °F - 73.4 °F 89% 29.95 in - NNE 8.1 mph - N/A   Clear
2:00 AM 77.0 °F - 73.4 °F 89% 29.92 in - NE 11.5 mph - N/A   Clear
3:00 AM 77.0 °F - 71.6 °F 83% 29.92 in - NNE 5.8 mph - N/A   Clear
4:00 AM 75.2 °F - 71.6 °F 89% 29.92 in - NNE 5.8 mph - N/A   Clear
5:00 AM 75.2 °F - 71.6 °F 89% 29.92 in - NE 5.8 mph - N/A   Clear
6:00 AM 71.6 °F - 69.8 °F 94% 29.95 in - North 3.5 mph - N/A   Clear
7:00 AM 75.2 °F - 69.8 °F 83% 29.98 in - NE 5.8 mph - N/A   Clear
8:00 AM 82.4 °F 86.3 °F 69.8 °F 66% 29.98 in - NE 12.7 mph - N/A   Clear
9:00 AM 87.8 °F 91.4 °F 68.0 °F 52% 29.98 in - NE 18.4 mph - N/A   Clear
10:00 AM 93.2 °F 98.8 °F 69.8 °F 46% 29.98 in - NNE 11.5 mph - N/A   Clear
11:00 AM 96.8 °F 101.8 °F 68.0 °F 39% 29.98 in - NNE 10.4 mph - N/A   Clear
12:00 PM 96.8 °F 99.0 °F 64.4 °F 34% 29.95 in 6.2 mi NE 12.7 mph - N/A   Partly Cloudy
1:00 PM 102.2 °F 104.2 °F 62.6 °F 27% 29.95 in - NNE 10.4 mph - N/A   Clear
2:00 PM 104.0 °F 110.5 °F 68.0 °F 31% 29.92 in - NE 13.8 mph - N/A   Clear
3:00 PM 87.8 °F 92.6 °F 69.8 °F 55% 29.92 in - East 15.0 mph - N/A   Clear
4:00 PM 86.0 °F 90.4 °F 69.8 °F 58% 29.89 in - East 17.3 mph - N/A   Clear
5:00 PM 87.8 °F 92.6 °F 69.8 °F 55% 29.89 in - East 18.4 mph - N/A   Clear
6:00 PM 84.2 °F 88.4 °F 69.8 °F 62% 29.89 in - East 12.7 mph - N/A   Clear
7:00 PM 86.0 °F 90.4 °F 69.8 °F 58% 29.89 in - NE 17.3 mph - N/A   Clear
8:00 PM 84.2 °F 88.4 °F 69.8 °F 62% 29.92 in - NE 13.8 mph - N/A   Clear
9:00 PM 80.6 °F 84.6 °F 71.6 °F 74% 29.95 in - NE 9.2 mph - N/A   Clear
10:00 PM 80.6 °F 84.6 °F 71.6 °F 74% 29.95 in - NE 10.4 mph - N/A   Clear
11:00 PM 78.8 °F - 71.6 °F 78% 29.95 in - NNE 8.1 mph - N/A   Clear